Tracking 21470 objects as of 25-Sep-2020
HD Live streaming from Space Station
objects crossing your sky now

DELTA 1 DEB

Track DELTA 1 DEB now!
10-day predictions


NORAD ID: 12234
Int'l Code: 1978-026CB
Perigee: 868.9 km
Apogee: 911.9 km
Inclination: 99.1 °
Period: 102.6 minutes
Semi major axis: 7261 km
RCS: 0.0288 m2 (small)
Launch date: March 5, 1978
Source: United States (US)
Launch site: AIR FORCE WESTERN TEST RANGE (AFWTR)

Note: This is SATELLITE DEBRIS
aabbcc
Your satellite tracking list
Your tracking list is empty




NASA's NSSDC Master Catalog

Two Line Element Set (TLE):
1 12234U 78026CB  20268.69245211 -.00000247 +00000-0 -12993-3 0  9995
2 12234 099.0612 232.0399 0029599 119.6049 054.7894 14.03052888028559
Source of the keplerian elements: AFSPC